TimeEST,TemperatureF,Dew PointF,Humidity,Sea Level PressureIn,VisibilityMPH,Wind Direction,Wind SpeedMPH,Gust SpeedMPH,PrecipitationIn,Events,Conditions,WindDirDegrees,DateUTC
12:02 AM,41.0,30.2,65,29.83,10.0,NW,3.5,-,N/A,,Scattered Clouds,320,2012-11-04 04:02:00
12:53 AM,41.0,30.9,67,29.85,10.0,North,4.6,-,N/A,,Overcast,360,2012-11-04 04:53:00
1:41 AM,41.0,30.2,65,29.84,10.0,NNW,5.8,-,N/A,,Overcast,330,2012-11-04 05:41:00
1:53 AM,41.0,30.9,67,29.85,10.0,NNW,8.1,-,N/A,,Overcast,330,2012-11-04 05:53:00
1:09 AM,41.0,30.2,65,29.84,10.0,NW,9.2,-,N/A,,Overcast,320,2012-11-04 06:09:00
1:53 AM,41.0,30.9,67,29.86,10.0,NNW,4.6,-,N/A,,Overcast,330,2012-11-04 06:53:00
2:12 AM,41.0,30.2,65,29.85,10.0,NNW,5.8,-,N/A,,Overcast,340,2012-11-04 07:12:00
2:53 AM,41.0,30.9,67,29.86,10.0,NNW,4.6,-,N/A,,Overcast,330,2012-11-04 07:53:00
3:53 AM,39.9,30.9,70,29.86,10.0,NNW,5.8,-,N/A,,Mostly Cloudy,330,2012-11-04 08:53:00
4:19 AM,39.2,32.0,75,29.86,10.0,NNW,3.5,-,N/A,,Mostly Cloudy,340,2012-11-04 09:19:00
4:46 AM,39.2,32.0,75,29.87,10.0,NW,5.8,-,N/A,,Overcast,310,2012-11-04 09:46:00
4:53 AM,41.0,30.9,67,29.88,10.0,NW,9.2,-,N/A,,Overcast,310,2012-11-04 09:53:00
5:53 AM,39.9,32.0,73,29.89,10.0,NW,4.6,-,N/A,,Overcast,310,2012-11-04 10:53:00
6:53 AM,39.9,32.0,73,29.91,10.0,NNW,4.6,-,N/A,,Overcast,330,2012-11-04 11:53:00
7:53 AM,39.9,32.0,73,29.93,10.0,North,5.8,-,N/A,,Overcast,350,2012-11-04 12:53:00
8:53 AM,39.9,30.9,70,29.94,10.0,NNW,6.9,-,N/A,,Overcast,330,2012-11-04 13:53:00
9:53 AM,41.0,28.9,62,29.92,10.0,NNW,9.2,-,N/A,,Overcast,330,2012-11-04 14:53:00
10:53 AM,42.1,28.0,58,29.92,10.0,NW,10.4,-,N/A,,Overcast,320,2012-11-04 15:53:00
11:53 AM,42.1,28.0,58,29.92,10.0,NNW,5.8,-,N/A,,Overcast,330,2012-11-04 16:53:00
12:53 PM,43.0,28.9,58,29.91,10.0,NNW,9.2,-,N/A,,Overcast,330,2012-11-04 17:53:00
1:17 PM,42.8,28.4,57,29.90,10.0,NW,10.4,-,N/A,,Overcast,320,2012-11-04 18:17:00
1:24 PM,42.8,28.4,57,29.90,10.0,NNW,9.2,-,N/A,,Overcast,330,2012-11-04 18:24:00
1:53 PM,42.1,28.0,58,29.91,10.0,NNW,10.4,-,N/A,,Overcast,330,2012-11-04 18:53:00
2:53 PM,42.1,28.0,58,29.92,10.0,NNW,9.2,17.3,N/A,,Overcast,330,2012-11-04 19:53:00
3:53 PM,42.1,28.9,60,29.93,10.0,North,9.2,-,N/A,,Overcast,360,2012-11-04 20:53:00
4:53 PM,39.9,28.0,63,29.94,10.0,North,8.1,-,N/A,,Overcast,360,2012-11-04 21:53:00
5:11 PM,39.2,28.4,65,29.93,10.0,North,6.9,-,N/A,,Overcast,350,2012-11-04 22:11:00
5:53 PM,39.9,28.0,63,29.96,10.0,North,9.2,-,N/A,,Overcast,350,2012-11-04 22:53:00
6:53 PM,37.9,27.0,65,29.97,10.0,North,10.4,18.4,N/A,,Overcast,10,2012-11-04 23:53:00
7:53 PM,37.0,26.1,65,29.98,10.0,North,9.2,-,N/A,,Overcast,10,2012-11-05 00:53:00
8:53 PM,37.0,25.0,62,29.99,10.0,NNW,10.4,18.4,N/A,,Overcast,330,2012-11-05 01:53:00
9:53 PM,36.0,23.0,59,30.00,10.0,NNW,8.1,-,N/A,,Overcast,340,2012-11-05 02:53:00
10:24 PM,35.6,21.2,56,29.97,10.0,NW,6.9,-,N/A,,Overcast,320,2012-11-05 03:24:00
10:53 PM,36.0,21.9,57,29.99,10.0,NNW,8.1,-,N/A,,Overcast,330,2012-11-05 03:53:00